Year,Month,Day,Hour,Minute,Value (Times are PST for temperature in C)
2019,05,26,00,00,12.70
2019,05,26,00,01,12.60
2019,05,26,00,02,12.60
2019,05,26,00,03,12.60
2019,05,26,00,04,12.60
2019,05,26,00,05,12.60
2019,05,26,00,06,12.50
2019,05,26,00,07,12.50
2019,05,26,00,08,12.50
2019,05,26,00,09,12.50
2019,05,26,00,10,12.40
2019,05,26,00,11,12.40
2019,05,26,00,12,12.40
2019,05,26,00,13,12.40
2019,05,26,00,14,12.30
2019,05,26,00,15,12.30
2019,05,26,00,16,12.30
2019,05,26,00,17,12.30
2019,05,26,00,18,12.20
2019,05,26,00,19,12.20
2019,05,26,00,20,12.20
2019,05,26,00,21,12.10
2019,05,26,00,22,12.10
2019,05,26,00,23,12.10
2019,05,26,00,24,12.10
2019,05,26,00,25,12.10
2019,05,26,00,26,12.10
2019,05,26,00,27,12.10
2019,05,26,00,28,12.10
2019,05,26,00,29,12.00
2019,05,26,00,30,12.10
2019,05,26,00,31,12.10
2019,05,26,00,32,12.10
2019,05,26,00,33,12.10
2019,05,26,00,34,12.10
2019,05,26,00,35,12.00
2019,05,26,00,36,12.00
2019,05,26,00,37,12.00
2019,05,26,00,38,11.90
2019,05,26,00,39,11.90
2019,05,26,00,40,11.90
2019,05,26,00,41,11.90
2019,05,26,00,42,11.90
2019,05,26,00,43,11.90
2019,05,26,00,44,11.80
2019,05,26,00,45,11.80
2019,05,26,00,46,11.80
2019,05,26,00,47,11.80
2019,05,26,00,48,11.80
2019,05,26,00,49,11.70
2019,05,26,00,50,11.70
2019,05,26,00,51,11.70
2019,05,26,00,52,11.70
2019,05,26,00,53,11.70
2019,05,26,00,54,11.70
2019,05,26,00,55,11.70
2019,05,26,00,56,11.70
2019,05,26,00,57,11.60
2019,05,26,00,58,11.60
2019,05,26,00,59,11.60
2019,05,26,01,00,11.60
2019,05,26,01,01,11.60
2019,05,26,01,02,11.60
2019,05,26,01,03,11.60
2019,05,26,01,04,11.50
2019,05,26,01,05,11.50
2019,05,26,01,06,11.40
2019,05,26,01,07,11.40
2019,05,26,01,08,11.40
2019,05,26,01,09,11.40
2019,05,26,01,10,11.30
2019,05,26,01,11,11.30
2019,05,26,01,12,11.30
2019,05,26,01,13,11.30
2019,05,26,01,14,11.30
2019,05,26,01,15,11.30
2019,05,26,01,16,11.30
2019,05,26,01,17,11.30
2019,05,26,01,18,11.30
2019,05,26,01,19,11.30
2019,05,26,01,20,11.30
2019,05,26,01,21,11.30
2019,05,26,01,22,11.30
2019,05,26,01,23,11.30
2019,05,26,01,24,11.20
2019,05,26,01,25,11.20
2019,05,26,01,26,11.20
2019,05,26,01,27,11.20
2019,05,26,01,28,11.20
2019,05,26,01,29,11.20
2019,05,26,01,30,11.20
2019,05,26,01,31,11.20
2019,05,26,01,32,11.20
2019,05,26,01,33,11.10
2019,05,26,01,34,11.10
2019,05,26,01,35,11.10
2019,05,26,01,36,11.10
2019,05,26,01,37,11.00
2019,05,26,01,38,11.00
2019,05,26,01,39,11.00
2019,05,26,01,40,11.00
2019,05,26,01,41,10.90
2019,05,26,01,42,10.90
2019,05,26,01,43,10.90
2019,05,26,01,44,10.90
2019,05,26,01,45,10.90
2019,05,26,01,46,10.80
2019,05,26,01,47,10.80
2019,05,26,01,48,10.80
2019,05,26,01,49,10.80
2019,05,26,01,50,10.80
2019,05,26,01,51,10.80
2019,05,26,01,52,10.80
2019,05,26,01,53,10.80
2019,05,26,01,54,10.80
2019,05,26,01,55,10.80
2019,05,26,01,56,10.80
2019,05,26,01,57,10.80
2019,05,26,01,58,10.80
2019,05,26,01,59,10.80
2019,05,26,02,00,10.70
2019,05,26,02,01,10.70
2019,05,26,02,02,10.70
2019,05,26,02,03,10.70
2019,05,26,02,04,10.70
2019,05,26,02,05,10.70
2019,05,26,02,06,10.70
2019,05,26,02,07,10.70
2019,05,26,02,08,10.70
2019,05,26,02,09,10.70
2019,05,26,02,10,10.70
2019,05,26,02,11,10.70
2019,05,26,02,12,10.70
2019,05,26,02,13,10.70
2019,05,26,02,14,10.70
2019,05,26,02,15,10.70
2019,05,26,02,16,10.70
2019,05,26,02,17,10.70
2019,05,26,02,18,10.70
2019,05,26,02,19,10.70
2019,05,26,02,20,10.70
2019,05,26,02,21,10.70
2019,05,26,02,22,10.60
2019,05,26,02,23,10.70
2019,05,26,02,24,10.60
2019,05,26,02,25,10.60
2019,05,26,02,26,10.60
2019,05,26,02,27,10.60
2019,05,26,02,28,10.60
2019,05,26,02,29,10.60
2019,05,26,02,30,10.70
2019,05,26,02,31,10.60
2019,05,26,02,32,10.70
2019,05,26,02,33,10.70
2019,05,26,02,34,10.70
2019,05,26,02,35,10.70
2019,05,26,02,36,10.60
2019,05,26,02,37,10.60
2019,05,26,02,38,10.60
2019,05,26,02,39,10.60
2019,05,26,02,40,10.60
2019,05,26,02,41,10.60
2019,05,26,02,42,10.60
2019,05,26,02,43,10.60
2019,05,26,02,44,10.50
2019,05,26,02,45,10.50
2019,05,26,02,46,10.50
2019,05,26,02,47,10.50
2019,05,26,02,48,10.50
2019,05,26,02,49,10.40
2019,05,26,02,50,10.40
2019,05,26,02,51,10.40
2019,05,26,02,52,10.40
2019,05,26,02,53,10.40
2019,05,26,02,54,10.30
2019,05,26,02,55,10.30
2019,05,26,02,56,10.30
2019,05,26,02,57,10.30
2019,05,26,02,58,10.30
2019,05,26,02,59,10.30
2019,05,26,03,00,10.30
2019,05,26,03,01,10.20
2019,05,26,03,02,10.20
2019,05,26,03,03,10.20
2019,05,26,03,04,10.20
2019,05,26,03,05,10.20
2019,05,26,03,06,10.30
2019,05,26,03,07,10.30
2019,05,26,03,08,10.30
2019,05,26,03,09,10.30
2019,05,26,03,10,10.30
2019,05,26,03,11,10.30
2019,05,26,03,12,10.30
2019,05,26,03,13,10.30
2019,05,26,03,14,10.30
2019,05,26,03,15,10.30
2019,05,26,03,16,10.30
2019,05,26,03,17,10.30
2019,05,26,03,18,10.30
2019,05,26,03,19,10.40
2019,05,26,03,20,10.40
2019,05,26,03,21,10.40
2019,05,26,03,22,10.40
2019,05,26,03,23,10.50
2019,05,26,03,24,10.50
2019,05,26,03,25,10.50
2019,05,26,03,26,10.50
2019,05,26,03,27,10.50
2019,05,26,03,28,10.50
2019,05,26,03,29,10.60
2019,05,26,03,30,10.60
2019,05,26,03,31,10.70
2019,05,26,03,32,10.70
2019,05,26,03,33,10.70
2019,05,26,03,34,10.70
2019,05,26,03,35,10.80
2019,05,26,03,36,10.80
2019,05,26,03,37,10.80
2019,05,26,03,38,10.80
2019,05,26,03,39,10.80
2019,05,26,03,40,10.90
2019,05,26,03,41,10.90
2019,05,26,03,42,10.80
2019,05,26,03,43,10.80
2019,05,26,03,44,10.80
2019,05,26,03,45,10.80
2019,05,26,03,46,10.80
2019,05,26,03,47,10.80
2019,05,26,03,48,10.70
2019,05,26,03,49,10.70
2019,05,26,03,50,10.70
2019,05,26,03,51,10.70
2019,05,26,03,52,10.70
2019,05,26,03,53,10.70
2019,05,26,03,54,10.60
2019,05,26,03,55,10.60
2019,05,26,03,56,10.60
2019,05,26,03,57,10.60
2019,05,26,03,58,10.60
2019,05,26,03,59,10.60
2019,05,26,04,00,10.60
2019,05,26,04,01,10.60
2019,05,26,04,02,10.60
2019,05,26,04,03,10.50
2019,05,26,04,04,10.60
2019,05,26,04,05,10.60
2019,05,26,04,06,10.60
2019,05,26,04,07,10.60
2019,05,26,04,08,10.50
2019,05,26,04,09,10.60
2019,05,26,04,10,10.60
2019,05,26,04,11,10.50
2019,05,26,04,12,10.50
2019,05,26,04,13,10.50
2019,05,26,04,14,10.50
2019,05,26,04,15,10.50
2019,05,26,04,16,10.60
2019,05,26,04,17,10.60
2019,05,26,04,18,10.60
2019,05,26,04,19,10.50
2019,05,26,04,20,10.50
2019,05,26,04,21,10.50
2019,05,26,04,22,10.50
2019,05,26,04,23,10.50
2019,05,26,04,24,10.50
2019,05,26,04,25,10.50
2019,05,26,04,26,10.50
2019,05,26,04,27,10.50
2019,05,26,04,28,10.50
2019,05,26,04,29,10.50
2019,05,26,04,30,10.50
2019,05,26,04,31,10.50
2019,05,26,04,32,10.50
2019,05,26,04,33,10.50
2019,05,26,04,34,10.50
2019,05,26,04,35,10.50
2019,05,26,04,36,10.50
2019,05,26,04,37,10.50
2019,05,26,04,38,10.50
2019,05,26,04,39,10.60
2019,05,26,04,40,10.60
2019,05,26,04,41,10.60
2019,05,26,04,42,10.60
2019,05,26,04,43,10.60
2019,05,26,04,44,10.60
2019,05,26,04,45,10.60
2019,05,26,04,46,10.60
2019,05,26,04,47,10.60
2019,05,26,04,48,10.60
2019,05,26,04,49,10.50
2019,05,26,04,50,10.50
2019,05,26,04,51,10.60
2019,05,26,04,52,10.60
2019,05,26,04,53,10.60
2019,05,26,04,54,10.60
2019,05,26,04,55,10.60
2019,05,26,04,56,10.60
2019,05,26,04,57,10.60
2019,05,26,04,58,10.50
2019,05,26,04,59,10.50
2019,05,26,05,00,10.40
2019,05,26,05,01,10.40
2019,05,26,05,02,10.40
2019,05,26,05,03,10.40
2019,05,26,05,04,10.40
2019,05,26,05,05,10.40
2019,05,26,05,06,10.30
2019,05,26,05,07,10.30
2019,05,26,05,08,10.30
2019,05,26,05,09,10.30
2019,05,26,05,10,10.30
2019,05,26,05,11,10.30
2019,05,26,05,12,10.30
2019,05,26,05,13,10.30
2019,05,26,05,14,10.30
2019,05,26,05,15,10.20
2019,05,26,05,16,10.30
2019,05,26,05,17,10.30
2019,05,26,05,18,10.30
2019,05,26,05,19,10.30
2019,05,26,05,20,10.30
2019,05,26,05,21,10.30
2019,05,26,05,22,10.30
2019,05,26,05,23,10.30
2019,05,26,05,24,10.20
2019,05,26,05,25,10.20
2019,05,26,05,26,10.20
2019,05,26,05,27,10.20
2019,05,26,05,28,10.20
2019,05,26,05,29,10.20
2019,05,26,05,30,10.20
2019,05,26,05,31,10.20
2019,05,26,05,32,10.20
2019,05,26,05,33,10.20
2019,05,26,05,34,10.30
2019,05,26,05,35,10.40
2019,05,26,05,36,10.50
2019,05,26,05,37,10.50
2019,05,26,05,38,10.50
2019,05,26,05,39,10.50
2019,05,26,05,40,10.50
2019,05,26,05,41,10.50
2019,05,26,05,42,10.50
2019,05,26,05,43,10.50
2019,05,26,05,44,10.50
2019,05,26,05,45,10.50
2019,05,26,05,46,10.50
2019,05,26,05,47,10.50
2019,05,26,05,48,10.60
2019,05,26,05,49,10.60
2019,05,26,05,50,10.60
2019,05,26,05,51,10.60
2019,05,26,05,52,10.60
2019,05,26,05,53,10.70
2019,05,26,05,54,10.70
2019,05,26,05,55,10.70
2019,05,26,05,56,10.70
2019,05,26,05,57,10.70
2019,05,26,05,58,10.80
2019,05,26,05,59,10.80
2019,05,26,06,00,10.90
2019,05,26,06,01,11.00
2019,05,26,06,02,11.10
2019,05,26,06,03,11.10
2019,05,26,06,04,11.10
2019,05,26,06,05,11.10
2019,05,26,06,06,11.10
2019,05,26,06,07,11.10
2019,05,26,06,08,11.10
2019,05,26,06,09,11.10
2019,05,26,06,10,11.10
2019,05,26,06,11,11.10
2019,05,26,06,12,11.10
2019,05,26,06,13,11.10
2019,05,26,06,14,11.00
2019,05,26,06,15,11.00
2019,05,26,06,16,11.00
2019,05,26,06,17,11.10
2019,05,26,06,18,11.10
2019,05,26,06,19,11.00
2019,05,26,06,20,11.00
2019,05,26,06,21,11.00
2019,05,26,06,22,11.00
2019,05,26,06,23,10.90
2019,05,26,06,24,10.90
2019,05,26,06,25,10.90
2019,05,26,06,26,10.80
2019,05,26,06,27,10.80
2019,05,26,06,28,10.80
2019,05,26,06,29,10.80
2019,05,26,06,30,10.80
2019,05,26,06,31,10.80
2019,05,26,06,32,10.80
2019,05,26,06,33,10.80
2019,05,26,06,34,10.90
2019,05,26,06,35,10.90
2019,05,26,06,36,10.90
2019,05,26,06,37,11.00
2019,05,26,06,38,11.00
2019,05,26,06,39,11.00
2019,05,26,06,40,11.10
2019,05,26,06,41,11.10
2019,05,26,06,42,11.20
2019,05,26,06,43,11.30
2019,05,26,06,44,11.30
2019,05,26,06,45,11.30
2019,05,26,06,46,11.40
2019,05,26,06,47,11.40
2019,05,26,06,48,11.40
2019,05,26,06,49,11.50
2019,05,26,06,50,11.50
2019,05,26,06,51,11.60
2019,05,26,06,52,11.60
2019,05,26,06,53,11.60
2019,05,26,06,54,11.60
2019,05,26,06,55,11.70
2019,05,26,06,56,11.70
2019,05,26,06,57,11.70
2019,05,26,06,58,11.70
2019,05,26,06,59,11.80
2019,05,26,07,00,11.90
2019,05,26,07,01,12.00
2019,05,26,07,02,12.10
2019,05,26,07,03,12.10
2019,05,26,07,04,12.20
2019,05,26,07,05,12.30
2019,05,26,07,06,12.40
2019,05,26,07,07,12.40
2019,05,26,07,08,12.40
2019,05,26,07,09,12.50
2019,05,26,07,10,12.50
2019,05,26,07,11,12.50
2019,05,26,07,12,12.60
2019,05,26,07,13,12.60
2019,05,26,07,14,12.60
2019,05,26,07,15,12.60
2019,05,26,07,16,12.60
2019,05,26,07,17,12.70
2019,05,26,07,18,12.70
2019,05,26,07,19,12.70
2019,05,26,07,20,12.70
2019,05,26,07,21,12.70
2019,05,26,07,22,12.70
2019,05,26,07,23,12.80
2019,05,26,07,24,12.80
2019,05,26,07,25,12.80
2019,05,26,07,26,12.90
2019,05,26,07,27,12.90
2019,05,26,07,28,12.90
2019,05,26,07,29,12.90
2019,05,26,07,30,13.00
2019,05,26,07,31,13.10
2019,05,26,07,32,13.20
2019,05,26,07,33,13.20
2019,05,26,07,34,13.30
2019,05,26,07,35,13.40
2019,05,26,07,36,13.40
2019,05,26,07,37,13.50
2019,05,26,07,38,13.60
2019,05,26,07,39,13.70
2019,05,26,07,40,13.80
2019,05,26,07,41,13.80
2019,05,26,07,42,13.90
2019,05,26,07,43,14.00
2019,05,26,07,44,14.10
2019,05,26,07,45,14.10
2019,05,26,07,46,14.20
2019,05,26,07,47,14.30
2019,05,26,07,48,14.30
2019,05,26,07,49,14.40
2019,05,26,07,50,14.40
2019,05,26,07,51,14.50
2019,05,26,07,52,14.50
2019,05,26,07,53,14.60
2019,05,26,07,54,14.70
2019,05,26,07,55,14.70
2019,05,26,07,56,14.80
2019,05,26,07,57,14.90
2019,05,26,07,58,14.90
2019,05,26,07,59,15.00
2019,05,26,08,00,15.10
2019,05,26,08,01,15.10
2019,05,26,08,02,15.10
2019,05,26,08,03,15.10
2019,05,26,08,04,15.20
2019,05,26,08,05,15.20
2019,05,26,08,06,15.20
2019,05,26,08,07,15.30
2019,05,26,08,08,15.50
2019,05,26,08,09,15.60
2019,05,26,08,10,15.80
2019,05,26,08,11,15.80
2019,05,26,08,12,15.90
2019,05,26,08,13,16.00
2019,05,26,08,14,16.10
2019,05,26,08,15,16.10
2019,05,26,08,16,16.10
2019,05,26,08,17,16.20
2019,05,26,08,18,16.30
2019,05,26,08,19,16.30
2019,05,26,08,20,16.40
2019,05,26,08,21,16.40
2019,05,26,08,22,16.40
2019,05,26,08,23,16.50
2019,05,26,08,24,16.60
2019,05,26,08,25,16.70
2019,05,26,08,26,16.80
2019,05,26,08,27,16.80
2019,05,26,08,28,16.90
2019,05,26,08,29,16.90
2019,05,26,08,30,17.00
2019,05,26,08,31,17.00
2019,05,26,08,32,17.10
2019,05,26,08,33,17.10
2019,05,26,08,34,17.20
2019,05,26,08,35,17.30
2019,05,26,08,36,17.40
2019,05,26,08,37,17.50
2019,05,26,08,38,17.60
2019,05,26,08,39,17.70
2019,05,26,08,40,17.70
2019,05,26,08,41,17.70
2019,05,26,08,42,17.80
2019,05,26,08,43,17.90
2019,05,26,08,44,18.00
2019,05,26,08,45,18.00
2019,05,26,08,46,18.10
2019,05,26,08,47,18.10
2019,05,26,08,48,18.20
2019,05,26,08,49,18.20
2019,05,26,08,50,18.20
2019,05,26,08,51,18.20
2019,05,26,08,52,18.20
2019,05,26,08,53,18.30
2019,05,26,08,54,18.30
2019,05,26,08,55,18.30
2019,05,26,08,56,18.30
2019,05,26,08,57,18.30
2019,05,26,08,58,18.40
2019,05,26,08,59,18.40
2019,05,26,09,00,18.40
2019,05,26,09,01,18.50
2019,05,26,09,02,18.50
2019,05,26,09,03,18.60
2019,05,26,09,04,18.60
2019,05,26,09,05,18.80
2019,05,26,09,06,18.80
2019,05,26,09,07,18.90
2019,05,26,09,08,18.90
2019,05,26,09,09,19.00
2019,05,26,09,10,19.10
2019,05,26,09,11,19.20
2019,05,26,09,12,19.30
2019,05,26,09,13,19.30
2019,05,26,09,14,19.30
2019,05,26,09,15,19.30
2019,05,26,09,16,19.40
2019,05,26,09,17,19.40
2019,05,26,09,18,19.40
2019,05,26,09,19,19.40
2019,05,26,09,20,19.50
2019,05,26,09,21,19.60
2019,05,26,09,22,19.70
2019,05,26,09,23,19.80
2019,05,26,09,24,19.90
2019,05,26,09,25,19.90
2019,05,26,09,26,20.00
2019,05,26,09,27,20.00
2019,05,26,09,28,20.10
2019,05,26,09,29,20.20
2019,05,26,09,30,20.30
2019,05,26,09,31,20.40
2019,05,26,09,32,20.50
2019,05,26,09,33,20.60
2019,05,26,09,34,20.60
2019,05,26,09,35,20.60
2019,05,26,09,36,20.70
2019,05,26,09,37,20.70
2019,05,26,09,38,20.80
2019,05,26,09,39,20.80
2019,05,26,09,40,20.70
2019,05,26,09,41,20.70
2019,05,26,09,42,20.60
2019,05,26,09,43,20.50
2019,05,26,09,44,20.50
2019,05,26,09,45,20.50
2019,05,26,09,46,20.60
2019,05,26,09,47,20.60
2019,05,26,09,48,20.70
2019,05,26,09,49,20.80
2019,05,26,09,50,20.90
2019,05,26,09,51,20.90
2019,05,26,09,52,21.00
2019,05,26,09,53,21.00
2019,05,26,09,54,21.10
2019,05,26,09,55,21.10
2019,05,26,09,56,21.20
2019,05,26,09,57,21.30
2019,05,26,09,58,21.30
2019,05,26,09,59,21.30
2019,05,26,10,00,21.40
2019,05,26,10,01,21.40
2019,05,26,10,02,21.40
2019,05,26,10,03,21.40
2019,05,26,10,04,21.40
2019,05,26,10,05,21.40
2019,05,26,10,06,21.40
2019,05,26,10,07,21.40
2019,05,26,10,08,21.30
2019,05,26,10,09,21.30
2019,05,26,10,10,21.40
2019,05,26,10,11,21.40
2019,05,26,10,12,21.40
2019,05,26,10,13,21.40
2019,05,26,10,14,21.40
2019,05,26,10,15,21.40
2019,05,26,10,16,21.50
2019,05,26,10,17,21.60
2019,05,26,10,18,21.80
2019,05,26,10,19,21.80
2019,05,26,10,20,21.90
2019,05,26,10,21,22.00
2019,05,26,10,22,22.10
2019,05,26,10,23,22.20
2019,05,26,10,24,22.30
2019,05,26,10,25,22.50
2019,05,26,10,26,22.70
2019,05,26,10,27,22.90
2019,05,26,10,28,23.00
2019,05,26,10,29,23.10
2019,05,26,10,30,23.10
2019,05,26,10,31,23.00
2019,05,26,10,32,23.00
2019,05,26,10,33,23.10
2019,05,26,10,34,23.10
2019,05,26,10,35,23.10
2019,05,26,10,36,23.10
2019,05,26,10,37,23.20
2019,05,26,10,38,23.20
2019,05,26,10,39,23.20
2019,05,26,10,40,23.20
2019,05,26,10,41,23.20
2019,05,26,10,42,23.20
2019,05,26,10,43,23.10
2019,05,26,10,44,23.10
2019,05,26,10,45,23.10
2019,05,26,10,46,23.20
2019,05,26,10,47,23.20
2019,05,26,10,48,23.20
2019,05,26,10,49,23.20
2019,05,26,10,50,23.10
2019,05,26,10,51,23.20
2019,05,26,10,52,23.20
2019,05,26,10,53,23.10
2019,05,26,10,54,23.10
2019,05,26,10,55,23.00
2019,05,26,10,56,23.00
2019,05,26,10,57,22.90
2019,05,26,10,58,22.80
2019,05,26,10,59,22.80
2019,05,26,11,00,22.80
2019,05,26,11,01,22.70
2019,05,26,11,02,22.70
2019,05,26,11,03,22.60
2019,05,26,11,04,22.50
2019,05,26,11,05,22.40
2019,05,26,11,06,22.20
2019,05,26,11,07,22.10
2019,05,26,11,08,22.00
2019,05,26,11,09,21.90
2019,05,26,11,10,21.90
2019,05,26,11,11,22.00
2019,05,26,11,12,22.00
2019,05,26,11,13,22.10
2019,05,26,11,14,22.10
2019,05,26,11,15,22.20
2019,05,26,11,16,22.30
2019,05,26,11,17,22.50
2019,05,26,11,18,22.50
2019,05,26,11,19,22.60
2019,05,26,11,20,22.70
2019,05,26,11,21,22.70
2019,05,26,11,22,22.80
2019,05,26,11,23,22.80
2019,05,26,11,24,22.80
2019,05,26,11,25,22.80
2019,05,26,11,26,22.80
2019,05,26,11,27,22.80
2019,05,26,11,28,22.60
2019,05,26,11,29,22.50
2019,05,26,11,30,22.30
2019,05,26,11,31,22.20
2019,05,26,11,32,22.10
2019,05,26,11,33,22.10
2019,05,26,11,34,22.10
2019,05,26,11,35,22.10
2019,05,26,11,36,22.20
2019,05,26,11,37,22.30
2019,05,26,11,38,22.30
2019,05,26,11,39,22.40
2019,05,26,11,40,22.40
2019,05,26,11,41,22.50
2019,05,26,11,42,22.60
2019,05,26,11,43,22.60
2019,05,26,11,44,22.80
2019,05,26,11,45,22.80
2019,05,26,11,46,23.00
2019,05,26,11,47,23.10
2019,05,26,11,48,23.10
2019,05,26,11,49,23.20
2019,05,26,11,50,23.30
2019,05,26,11,51,23.40
2019,05,26,11,52,23.40
2019,05,26,11,53,23.50
2019,05,26,11,54,23.50
2019,05,26,11,55,23.60
2019,05,26,11,56,23.60
2019,05,26,11,57,23.50
2019,05,26,11,58,23.30
2019,05,26,11,59,23.20
2019,05,26,12,00,23.20
2019,05,26,12,01,23.20
2019,05,26,12,02,23.20
2019,05,26,12,03,23.20
2019,05,26,12,04,23.30
2019,05,26,12,05,23.30
2019,05,26,12,06,23.30
2019,05,26,12,07,23.30
2019,05,26,12,08,23.30
2019,05,26,12,09,23.30
2019,05,26,12,10,23.30
2019,05,26,12,11,23.30
2019,05,26,12,12,23.40
2019,05,26,12,13,23.40
2019,05,26,12,14,23.50
2019,05,26,12,15,23.50
2019,05,26,12,16,23.60
2019,05,26,12,17,23.70
2019,05,26,12,18,23.90
2019,05,26,12,19,24.00
2019,05,26,12,20,24.10
2019,05,26,12,21,24.30
2019,05,26,12,22,24.40
2019,05,26,12,23,24.50
2019,05,26,12,24,24.70
2019,05,26,12,25,24.80
2019,05,26,12,26,25.00
2019,05,26,12,27,25.10
2019,05,26,12,28,25.20
2019,05,26,12,29,25.30
2019,05,26,12,30,25.40
2019,05,26,12,31,25.50
2019,05,26,12,32,25.70
2019,05,26,12,33,25.90
2019,05,26,12,34,26.10
2019,05,26,12,35,26.20
2019,05,26,12,36,26.30
2019,05,26,12,37,26.30
2019,05,26,12,38,26.30
2019,05,26,12,39,26.50
2019,05,26,12,40,26.60
2019,05,26,12,41,26.70
2019,05,26,12,42,26.80
2019,05,26,12,43,26.90
2019,05,26,12,44,27.00
2019,05,26,12,45,27.10
2019,05,26,12,46,27.20
2019,05,26,12,47,27.20
2019,05,26,12,48,27.30
2019,05,26,12,49,27.30
2019,05,26,12,50,27.40
2019,05,26,12,51,27.40
2019,05,26,12,52,27.50
2019,05,26,12,53,27.60
2019,05,26,12,54,27.60
2019,05,26,12,55,27.60
2019,05,26,12,56,27.50
2019,05,26,12,57,27.40
2019,05,26,12,58,27.30
2019,05,26,12,59,27.20
2019,05,26,13,00,27.00
2019,05,26,13,01,26.90
2019,05,26,13,02,26.90
2019,05,26,13,03,26.90
2019,05,26,13,04,27.00
2019,05,26,13,05,27.10
2019,05,26,13,06,27.20
2019,05,26,13,07,27.20
2019,05,26,13,08,27.20
2019,05,26,13,09,27.30
2019,05,26,13,10,27.30
2019,05,26,13,11,27.40
2019,05,26,13,12,27.50
2019,05,26,13,13,27.60
2019,05,26,13,14,27.60
2019,05,26,13,15,27.70
2019,05,26,13,16,27.70
2019,05,26,13,17,27.80
2019,05,26,13,18,27.90
2019,05,26,13,19,28.00
2019,05,26,13,20,28.00
2019,05,26,13,21,28.00
2019,05,26,13,22,28.00
2019,05,26,13,23,27.90
2019,05,26,13,24,27.90
2019,05,26,13,25,27.90
2019,05,26,13,26,27.90
2019,05,26,13,27,27.80
2019,05,26,13,28,27.70
2019,05,26,13,29,27.60
2019,05,26,13,30,27.30
2019,05,26,13,31,27.20
2019,05,26,13,32,27.00
2019,05,26,13,33,26.80
2019,05,26,13,34,26.50
2019,05,26,13,35,26.30
2019,05,26,13,36,26.20
2019,05,26,13,37,26.10
2019,05,26,13,38,26.10
2019,05,26,13,39,26.10
2019,05,26,13,40,26.00
2019,05,26,13,41,25.90
2019,05,26,13,42,25.90
2019,05,26,13,43,25.90
2019,05,26,13,44,25.80
2019,05,26,13,45,25.80
2019,05,26,13,46,25.70
2019,05,26,13,47,25.70
2019,05,26,13,48,25.80
2019,05,26,13,49,25.80
2019,05,26,13,50,25.80
2019,05,26,13,51,25.80
2019,05,26,13,52,25.90
2019,05,26,13,53,25.90
2019,05,26,13,54,26.00
2019,05,26,13,55,26.00
2019,05,26,13,56,26.10
2019,05,26,13,57,26.30
2019,05,26,13,58,26.40
2019,05,26,13,59,26.60
2019,05,26,14,00,26.60
2019,05,26,14,01,26.80
2019,05,26,14,02,26.80
2019,05,26,14,03,26.90
2019,05,26,14,04,27.00
2019,05,26,14,05,27.10
2019,05,26,14,06,27.20
2019,05,26,14,07,27.30
2019,05,26,14,08,27.30
2019,05,26,14,09,27.40
2019,05,26,14,10,27.40
2019,05,26,14,11,27.50
2019,05,26,14,12,27.60
2019,05,26,14,13,27.70
2019,05,26,14,14,27.80
2019,05,26,14,15,27.80
2019,05,26,14,16,27.80
2019,05,26,14,17,27.90
2019,05,26,14,18,27.90
2019,05,26,14,19,27.90
2019,05,26,14,20,28.00
2019,05,26,14,21,28.00
2019,05,26,14,22,28.10
2019,05,26,14,23,28.10
2019,05,26,14,24,28.30
2019,05,26,14,25,28.40
2019,05,26,14,26,28.50
2019,05,26,14,27,28.60
2019,05,26,14,28,28.80
2019,05,26,14,29,28.90
2019,05,26,14,30,28.90
2019,05,26,14,31,28.90
2019,05,26,14,32,29.00
2019,05,26,14,33,28.90
2019,05,26,14,34,28.80
2019,05,26,14,35,28.70
2019,05,26,14,36,28.70
2019,05,26,14,37,28.70
2019,05,26,14,38,28.70
2019,05,26,14,39,28.80
2019,05,26,14,40,28.90
2019,05,26,14,41,28.90
2019,05,26,14,42,29.00
2019,05,26,14,43,29.10
2019,05,26,14,44,29.10
2019,05,26,14,45,29.20
2019,05,26,14,46,29.30
2019,05,26,14,47,29.30
2019,05,26,14,48,29.30
2019,05,26,14,49,29.20
2019,05,26,14,50,29.20
2019,05,26,14,51,29.20
2019,05,26,14,52,29.20
2019,05,26,14,53,29.30
2019,05,26,14,54,29.30
2019,05,26,14,55,29.30
2019,05,26,14,56,29.40
2019,05,26,14,57,29.50
2019,05,26,14,58,29.50
2019,05,26,14,59,29.50
2019,05,26,15,00,29.40
2019,05,26,15,01,29.40
2019,05,26,15,02,29.40
2019,05,26,15,03,29.40
2019,05,26,15,04,29.40
2019,05,26,15,05,29.40
2019,05,26,15,06,29.40
2019,05,26,15,07,29.40
2019,05,26,15,08,29.50
2019,05,26,15,09,29.50
2019,05,26,15,10,29.60
2019,05,26,15,11,29.60
2019,05,26,15,12,29.60
2019,05,26,15,13,29.70
2019,05,26,15,14,29.80
2019,05,26,15,15,29.90
2019,05,26,15,16,29.90
2019,05,26,15,17,29.80
2019,05,26,15,18,29.80
2019,05,26,15,19,29.90
2019,05,26,15,20,29.90
2019,05,26,15,21,29.90
2019,05,26,15,22,29.80
2019,05,26,15,23,29.80
2019,05,26,15,24,29.80
2019,05,26,15,25,29.80
2019,05,26,15,26,29.90
2019,05,26,15,27,29.90
2019,05,26,15,28,29.90
2019,05,26,15,29,30.00
2019,05,26,15,30,30.00
2019,05,26,15,31,30.00
2019,05,26,15,32,30.10
2019,05,26,15,33,30.20
2019,05,26,15,34,30.30
2019,05,26,15,35,30.40
2019,05,26,15,36,30.40
2019,05,26,15,37,30.40
2019,05,26,15,38,30.30
2019,05,26,15,39,30.30
2019,05,26,15,40,30.30
2019,05,26,15,41,30.30
2019,05,26,15,42,30.30
2019,05,26,15,43,30.20
2019,05,26,15,44,30.10
2019,05,26,15,45,30.10
2019,05,26,15,46,30.10
2019,05,26,15,47,30.10
2019,05,26,15,48,30.20
2019,05,26,15,49,30.20
2019,05,26,15,50,30.20
2019,05,26,15,51,30.10
2019,05,26,15,52,30.10
2019,05,26,15,53,30.00
2019,05,26,15,54,30.00
2019,05,26,15,55,29.90
2019,05,26,15,56,29.90
2019,05,26,15,57,29.90
2019,05,26,15,58,29.80
2019,05,26,15,59,29.80
2019,05,26,16,00,29.80
2019,05,26,16,01,29.80
2019,05,26,16,02,29.80
2019,05,26,16,03,29.80
2019,05,26,16,04,29.80
2019,05,26,16,05,29.80
2019,05,26,16,06,29.90
2019,05,26,16,07,29.90
2019,05,26,16,08,29.90
2019,05,26,16,09,30.00
2019,05,26,16,10,30.00
2019,05,26,16,11,30.00
2019,05,26,16,12,30.00
2019,05,26,16,13,30.00
2019,05,26,16,14,29.90
2019,05,26,16,15,29.90
2019,05,26,16,16,29.90
2019,05,26,16,17,30.00
2019,05,26,16,18,30.10
2019,05,26,16,19,30.10
2019,05,26,16,20,30.20
2019,05,26,16,21,30.20
2019,05,26,16,22,30.30
2019,05,26,16,23,30.30
2019,05,26,16,24,30.40
2019,05,26,16,25,30.30
2019,05,26,16,26,30.30
2019,05,26,16,27,30.20
2019,05,26,16,28,30.20
2019,05,26,16,29,30.10
2019,05,26,16,30,30.00
2019,05,26,16,31,30.00
2019,05,26,16,32,29.90
2019,05,26,16,33,29.90
2019,05,26,16,34,29.90
2019,05,26,16,35,29.90
2019,05,26,16,36,29.80
2019,05,26,16,37,29.80
2019,05,26,16,38,29.70
2019,05,26,16,39,29.70
2019,05,26,16,40,29.70
2019,05,26,16,41,29.80
2019,05,26,16,42,29.80
2019,05,26,16,43,29.70
2019,05,26,16,44,29.80
2019,05,26,16,45,29.80
2019,05,26,16,46,29.90
2019,05,26,16,47,29.90
2019,05,26,16,48,29.90
2019,05,26,16,49,29.90
2019,05,26,16,50,29.90
2019,05,26,16,51,29.90
2019,05,26,16,52,29.90
2019,05,26,16,53,29.80
2019,05,26,16,54,29.80
2019,05,26,16,55,29.90
2019,05,26,16,56,29.90
2019,05,26,16,57,29.90
2019,05,26,16,58,30.00
2019,05,26,16,59,30.00
2019,05,26,17,00,29.90
2019,05,26,17,01,29.90
2019,05,26,17,02,29.80
2019,05,26,17,03,29.80
2019,05,26,17,04,29.80
2019,05,26,17,05,29.80
2019,05,26,17,06,29.80
2019,05,26,17,07,29.80
2019,05,26,17,08,29.80
2019,05,26,17,09,29.80
2019,05,26,17,10,29.80
2019,05,26,17,11,29.80
2019,05,26,17,12,29.90
2019,05,26,17,13,30.00
2019,05,26,17,14,30.00
2019,05,26,17,15,30.10
2019,05,26,17,16,30.10
2019,05,26,17,17,30.10
2019,05,26,17,18,30.00
2019,05,26,17,19,30.00